JO-97
1 43803U 18099AX  24342.69042114  .00018769  00000-0  10340-2 0  9998
2 43803  97.4968  37.9962 0009809  69.3206 290.9076 15.14015817328886
Suomi 100
1 43804U 18099AY  24342.66536805  .00015866  00000-0  91053-3 0  9997
2 43804  97.5031  37.6527 0015136  68.4425 291.8417 15.12530356328849
ISAT
1 43879U 18111D   24342.47672879  .00025034  00000-0  11833-2 0  9990
2 43879  97.6056 248.1492 0013314 113.5262 246.7372 15.19308951325641
UWE-4
1 43880U 18111E   24342.55658801  .00023590  00000-0  11816-2 0  9996
2 43880  97.5990 247.7088 0016111 124.5387 235.7369 15.17263843325645
Sparrow
1 43881U 18111F   24342.51067743  .00028372  00000-0  13122-2 0  9997
2 43881  97.6171 250.4699 0009337 144.9003 215.2848 15.20075139325727
Prox-1
1 44339U 19036A   24342.23804827  .00018570  00000-0  27580-2 0  9996
2 44339  23.9968 186.9288 0007445 133.7596 226.3516 14.73451321290735
SONATE
1 44400U 19038Q   24342.56213491  .00057271  00000-0  10259-2 0  9990
2 44400  97.7133 346.1769 0010646 191.2640 168.8373 15.49712179300779
Taurus 1
1 44530U 19059C   24342.82571577  .00015087  00000-0  30839-2 0  9993
2 44530  98.5892 108.4054 0010685 240.3240 119.6896 14.60907707277069
Duchifat 3
1 44854U 19089C   24342.59019157  .00040527  00000-0  14359-2 0  9996
2 44854  36.9510  68.1960 0010615 113.2659 246.9210 15.28140770274621
TO-108
1 44881U 19093C   24342.77375526  .00002679  00000-0  32124-3 0  9993
2 44881  97.8134  56.1781 0015319 112.6948 247.5888 14.84800741268798
FloripaSat 1
1 44885U 19093G   24342.76396526  .00011636  00000-0  10775-2 0  9999
2 44885  97.8296  64.4017 0012199 100.1187 260.1410 14.94606131269257
RS-44
1 44909U 19096E   24342.51720334  .00000021  00000-0  39800-4 0  9998
2 44909  82.5216 349.5977 0217600   6.2705 354.1039 12.79736699231147
UPMSat 2
1 46276U 20061E   24342.49265801  .00040762  00000-0  82516-3 0  9998
2 46276  97.2737  47.7922 0000848 159.5104 200.6180 15.46320959236831
AmicalSat
1 46287U 20061R   24342.77029075  .00273185  00000-0  17701-2 0  9992
2 46287  97.3172  53.1370 0002828 283.5979  76.4971 15.75245256236456
SALSAT
1 46495U 20068K   24342.42026505  .00012376  00000-0  60990-3 0  9999
2 46495  97.8399 306.8524 0015025  80.0219 280.2708 15.18002616230547
IDEASSat
1 47458U 21006AX  24342.74446522  .02642450  23382-5  16291-2 0  9993
2 47458  97.2778  47.3025 0006680 300.8747  59.1883 16.18010853215645
CubeSX-Sirius-HSE
1 47951U 21022V   24342.81800755  .00066160  00000-0  15320-2 0  9994
2 47951  97.4395 242.2265 0006681 230.4986 129.5671 15.42194567205160
CubeSX-HSE
1 47952U 21022W   24342.81369347  .00065342  00000-0  14947-2 0  9997
2 47952  97.4390 242.3676 0006780 227.8501 132.2170 15.42563899205170
KSU-Cubesat
1 47954U 21022Y   24342.69822520  .00105685  00000-0  17606-2 0  9992
2 47954  97.4391 244.9044 0004938 198.8830 161.2240 15.51622041205046
GRBAlpha
1 47959U 21022AD  24342.77187376  .00063013  00000-0  14432-2 0  9991
2 47959  97.4390 242.4927 0006645 227.7760 132.2924 15.42538186203999
Orbicraft-Zorkiy
1 47960U 21022AE  24342.79291508  .00082757  00000-0  15622-2 0  9996
2 47960  97.4429 244.7487 0005003 215.9720 144.1194 15.48150849204806
TUBIN
1 48900U 21059X   24342.76860198  .00041221  00000-0  96466-3 0  9992
2 48900  97.6622 134.0400 0005214 189.4762 170.6386 15.42006176191550
LEDSAT
1 49069U 21073D   24342.74510293  .00044137  00000-0  11834-2 0  9995
2 49069  97.4165  53.8805 0014979  29.0133 331.1941 15.37736055182992
CUTE
1 49263U 21088D   24342.16678934  .00046938  00000-0  14221-2 0  9994
2 49263  97.4756  48.2965 0010963 187.2906 172.8178 15.33945997176014
TeikyoSat 4
1 49396U 21102B   24342.55621746  .00003808  00000-0  26364-3 0  9991
2 49396  97.4371  21.5162 0014154  49.1507 311.0945 15.06163430168830
Z-Sat
1 49399U 21102E   24342.77630388  .00008249  00000-0  48682-3 0  9991
2 49399  97.4087  23.8445 0019810  25.2307 334.9886 15.11617995169186
KOSEN 1
1 49402U 21102H   24342.07019488  .00011835  00000-0  61653-3 0  9999
2 49402  97.4002  25.3632 0017412   8.2343 351.9173 15.16016648169293
HO-113
1 50466U 21131B   24342.77292283  .00001665  00000-0  53903-3 0  9995
2 50466  98.5213  67.0370 0003604 340.9917  19.1136 14.40328224154988
IRIS-A
1 51044U 22002BN  24342.82487420  .00061663  00000-0  11860-2 0  9990
2 51044  97.3601  50.1655 0004763 127.2983 232.8702 15.47699680161115
Foresail-1
1 52766U 22057AL  24342.33534560  .00056656  00000-0  10839-2 0  9997
2 52766  97.5971 113.8399 0007478 235.3041 124.7504 15.47858786141079
SNUGLITE 2
1 52899U 22065F   24342.34453370  .00003127  00000-0  63009-3 0  9996
2 52899  98.1422 120.5519 0007083 338.7505  21.3401 14.62185440129551
IO-117
1 53106U 22080B   24340.33076919 -.00000003  00000-0  00000-0 0  9992
2 53106  70.1317 133.0636 0008362  68.7653 291.3899  6.42557789 56265
FO-118
1 54684U 22167C   24342.76710570  .00130289  00000-0  18537-2 0  9992
2 54684  97.6146 134.5196 0008076 255.6312 104.4045 15.55876357111010
SSS-2B
1 56184U 23054G   24342.80984536  .00532781  11123-3  17436-2 0  9996
2 56184  97.3343 245.8712 0005690 113.2838 246.9035 15.90562308 93134
SO-120
1 56992U 23084BU  24342.59412172  .00161226  00000-0  21094-2 0  9990
2 56992  97.5368 106.8368 0003681 138.9897 221.1635 15.58060634 82857
MRC-100
1 56993U 23084BV  24342.30172614  .00354811  00000-0  24513-2 0  9997
2 56993  97.5317 108.3312 0001311 263.3390  96.7725 15.73517182 82934
UmKA 1 (RS40S)
1 57172U 23091G   24342.82605779  .00011559  00000-0  68196-3 0  9990
2 57172  97.5882  33.3347 0014347 245.9196 114.0534 15.11622388 79686
CubeBel-2 (EU11S)
1 57175U 23091K   24342.82675608  .00016588  00000-0  92082-3 0  9999
2 57175  97.5882  33.6290 0012452 257.5831 102.4007 15.13748198 79708
VERONIKA
1 58261U 23174F   24342.75831168  .00054744  00000-0  15476-2 0  9992
2 58261  97.4408  57.3192 0008885 350.1389   9.9678 15.36109340 60200
KAFASAT
1 58317U 23174BP  24342.73870851  .00093342  00000-0  18924-2 0  9992
2 58317  97.4332  59.1879 0007531 317.0260  43.0400 15.46017324 60345
ENSO
1 58470U 23185J   24342.76641110  .00041269  00000-0  11895-2 0  9992
2 58470  97.4031  48.7413 0010179  28.2075 331.9718 15.35558783 56653
EIRSAT-1
1 58472U 23185L   24342.79471413  .00051040  00000-0  13616-2 0  9995
2 58472  97.4024  49.1249 0009380  26.9609 333.2122 15.37927011 56682
SONATE-2
1 59112U 24043Q   24342.60590594  .00023633  00000-0  90319-3 0  9996
2 59112  97.4948 105.6471 0013462  49.2365 311.0039 15.26528454 42184
MO-122
1 60209U 24125G   24342.51905962  .00024704  00000-0  93671-3 0  9999
2 60209  97.2985 191.1579 0024820  74.1889 286.2084 15.26570162 23780
GRBBeta
1 60237U 24128C   24342.43959307  .00007615  00000-0  62403-3 0  9997
2 60237  61.9945   0.2250 0030290  11.2495 348.9265 14.99686593 22550
Curium One
1 60242U 24128H   24342.46957980  .00012673  00000-0  10112-2 0  9990
2 60242  61.9849   0.1934 0030594   2.9880 357.1387 15.00263229 22567
ROBUSTA-3A
1 60243U 24128J   24342.55989942  .00012924  00000-0  10396-2 0  9997
2 60243  61.9917   0.1911 0028702   0.7253 359.3873 14.99985093 22579
CatSat
1 60246U 24125J   24342.83283669  .00019656  00000-0  77504-3 0  9995
2 60246  97.2788 192.2422 0049116  28.1904 332.1976 15.24465242 21939
CosmoGirlSat
1 60953U 98067WT  24342.75386877  .05066375  12023-4  15104-2 0  9996
2 60953  51.6043 160.8466 0010521 280.3482  79.6352 16.26146806 15762
CySat-1
1 61501U 98067WZ  24342.56679041  .00300899  00000-0  20000-2 0  9999
2 61501  51.6287 171.7588 0013167 252.3534 107.6028 15.73892631  9438
AO-123
1 99130U 20499A   24342.49518519  .00052381  00000-0  21763-2 0 00006
2 99130 097.3798 206.7777 0018858 123.6801 282.1049 15.23689449000012
